Location: *
(46.4833°N, 7.6667°E)
Time: 02:17:10
(UTC+00:00)

NOSS 3-2 (C) - Pass Details

Date: 27 February 2020
Orbit: 811 x 1401 km, 63.4° (Epoch: 06 April)

Event Time Altitude Azimuth Distance (km) Brightness Sun altitude
Rises 19:01:14 0° 320° (NW) 3,887 7.4 -19.6°
Reaches altitude 10° 19:03:54 10° 326° (NW) 3,013 6.6 -20.1°
Maximum altitude 19:10:56 48° 40° (NE) 1,582 4.3 -21.3°
Enters shadow 19:13:51 35° 88° (E) 1,960 4.5 -21.7°
